Regional Weather Roundup
Issued by NWS Charleston, WV

Home | Current Version | Previous Version | Text Only | Print | Product List | Glossary Off
Versions: 1 2 3 4 5 6 7 8 9 10 11 12 13 14 15 16 17 18 19 20 21 22 23 24 25 26 27 28 29 30 31 32 33 34 35 36 37 38 39 40 41 42 43 44 45 46 47

000
ASUS41 KRLX 250110
RWRRLX
West Virginia Regional Weather Roundup
National Weather Service Charleston WV
800 PM EST WED DEC 24 2014

Note: "fair" indicates few or no clouds below 12,000 feet with no
significant weather and/or obstructions to visibility.

WVZ003-250200-
Northern Panhandle of West Virginia

CITY           SKY/WX    TMP DP  RH WIND       PRES   REMARKS
WHEELING       LGT RAIN  52  45  77 W22G43    29.45R
$$

WVZ009-250200-
Northwest West Virginia

CITY           SKY/WX    TMP DP  RH WIND       PRES   REMARKS
PARKERSBURG    LGT RAIN  50  43  77 W25G35    29.54R
$$

WVZ006-250200-
Western West Virginia

CITY           SKY/WX    TMP DP  RH WIND       PRES   REMARKS
HUNTINGTON     CLOUDY    45  40  82 W12G23    29.64R
$$

WVZ015-250200-
West Central West Virginia

CITY           SKY/WX    TMP DP  RH WIND       PRES   REMARKS
CHARLESTON     LGT RAIN  50  43  77 W12G22    29.60R
$$

WVZ022-031-250200-
North Central West Virginia

CITY           SKY/WX    TMP DP  RH WIND       PRES   REMARKS
CLARKSBURG     CLOUDY    64  52  64 S9        29.39F
MORGANTOWN     CLOUDY    65  49  56 S10G18    29.39F
$$

WVZ025-035-042-045-250200-
Southern West Virginia

CITY           SKY/WX    TMP DP  RH WIND       PRES   REMARKS
BECKLEY        LGT RAIN  52  48  86 W20G28    29.60R
LOGAN          LGT RAIN  48  43  81 W14G26    29.63R
BLUEFIELD      CLOUDY    61  48  62 SW9G22    29.59R
LEWISBURG      CLOUDY    60  53  79 S15G21    29.56R
$$

WVZ047-250200-
Northern Mountains of West Virginia

CITY           SKY/WX    TMP DP  RH WIND       PRES   REMARKS
ELKINS         CLOUDY    62  53  72 S9        29.47S
$$

WVZ052-250200-
Eastern Panhandle of West Virginia

CITY           SKY/WX    TMP DP  RH WIND       PRES   REMARKS
MARTINSBURG    FOG       46  43  89 W5        29.55F VSB 1/4
PETERSBURG     CLOUDY    41  41 100 CALM      29.50F FOG
$$


USA.gov is the U.S. government's official web portal to all federal, state and local government web resources and services.